Flag for India Weather past 2 weeks in Allahabad, Uttar Pradesh, India

Now
88 °F

Passing clouds.


Feels Like: 100 °F
Forecast: 79 / 95 °F
Wind: No wind

Location: Varanasi / Babatpur

Current Time: Jul 25, 2014 at 10:03:37 PM

Latest Report: Jul 25, 2014 at 9:00 PM


Visibility: 3 mi

Pressure: 29.59 "Hg

Humidity: 70%

Dew point: 77 °F

Location of AllahabadLocation

Historic Weather in Allahabad — Graph

°F

Allahabad temperature yesterday

Maximum temperature yesterday: 91 °F (at 2:00 PM)
Minimum temperature yesterday: 77 °F (at 4:00 AM)
Average temperature yesterday: 85 °F

Past Weeks' High & Low Weather Summary

 TemperatureHumidityPressure
High102 °F (Jul 12, 4:00 AM)100% (Jul 17, 6:00 PM)29.62 "Hg (Jul 17, 6:00 PM)
Low77 °F (Jul 24, 4:00 AM)48% (Jul 12, 4:00 AM)29.33 "Hg (Jul 19, 4:00 PM)
Average87 °F77%29.46 "Hg
* Reported Jul 10 8:00 PM — Jul 25 8:00 PM, Allahabad, Weather by CustomWeather, © 2014

Note: Actual official high and low records may vary slightly from our data, if they occured in-between our weather recording intervals... More about our weather records

Advertising

Allahabad weather history for previous 24 hours

 ConditionsComfort  
Time TempWeatherWind HumidityBarometerVisibility
8:00 PM
Jul 25
90 °FPassing clouds.No wind67%29.59 "Hg3 mi
7:00 PM90 °FScattered clouds.No wind67%29.53 "Hg4 mi
6:00 PM90 °FScattered clouds.No wind67%29.53 "Hg4 mi
5:00 PM91 °FScattered clouds.1 mph59%29.53 "Hg4 mi
4:00 PM93 °FScattered clouds.1 mph56%29.53 "Hg4 mi
2:00 PM91 °FScattered clouds.1 mph63%29.59 "Hg4 mi
1:00 PM90 °FPartly sunny.5 mph67%29.59 "Hg4 mi
12:00 PM90 °FScattered clouds.No wind67%29.62 "Hg4 mi
11:00 AM88 °FPartly sunny.2 mph66%29.62 "Hg4 mi
9:00 AM82 °FScattered clouds.1 mph84%29.62 "Hg3 mi
7:00 AM82 °FBroken clouds.No wind79%29.59 "Hg2 mi
6:00 AM81 °FBroken clouds.No wind84%29.59 "Hg2 mi
5:00 AM82 °FPartly cloudy.No wind79%29.56 "Hg2 mi
4:00 AM84 °FPartly cloudy.No wind74%29.56 "Hg2 mi
12:00 AM84 °FPartly cloudy.No wind74%29.59 "Hg2 mi
10:00 PM
Jul 24
86 °FPartly cloudy.No wind70%29.59 "Hg2 mi
Weather by CustomWeather, © 2014

See weather overviewHow to use our weather pages